Tracking 34410 objects as of 16-Jun-2026
HD Live streaming from Space Station
objects crossing your sky now

CP5

Track CP5 now!
10-day predictions
CP5 is classified as:


NORAD ID: 38763
Int'l Code: 2012-048F
Perigee: 435.7 km
Apogee: 543.8 km
Inclination: 64.6 °
Period: 94.3 minutes
Semi major axis: 6860 km
RCS: Unknown
Launch date: September 13, 2012
Source: United States (US)
Launch site: AIR FORCE WESTERN TEST RANGE (AFWTR)

Uplink (MHz):
Downlink (MHz): 437.405
Beacon (MHz): 437.405
Mode: 1200bps AFSK CW
Call sign: CP5
Status: Inactive

Your satellite tracking list
Your tracking list is empty




NASA's NSSDC Master Catalog

Two Line Element Set (TLE):
1 38763U 12048F   26167.28193837  .00007896  00000-0  27241-3 0  9994
2 38763  64.6429 155.5791 0078777 176.6479 183.5196 15.27730748116622
Source of the keplerian elements: Caltech